Time,TemperatureF,DewpointF,PressureIn,WindDirection,WindDirectionDegrees,WindSpeedMPH,WindSpeedGustMPH,Humidity,HourlyPrecipIn,Conditions,Clouds,dailyrainin,SolarRadiationWatts/m^2,SoftwareType,DateUTC
2013-01-19 00:33:00,58.0,-9.0,-100.00,SSW,211,3.0,6.0,6,-99.99,,,0.00,0.000000,,2013-01-19 08:33:00,
2013-01-19 01:33:00,57.0,-4.0,-100.00,West,280,1.0,4.0,8,-99.99,,,0.00,0.000000,,2013-01-19 09:33:00,
2013-01-19 02:33:00,55.0,-5.0,-100.00,North,352,0.0,3.0,8,-99.99,,,0.00,0.000000,,2013-01-19 10:33:00,
2013-01-19 05:23:00,54.0,-12.0,-100.00,East,92,5.0,6.0,6,-99.99,,,0.00,0.000000,,2013-01-19 13:23:00,
2013-01-19 05:34:00,54.0,-12.0,-100.00,East,92,5.0,6.0,6,-99.99,,,0.00,0.000000,,2013-01-19 13:34:00,
2013-01-19 06:34:00,55.0,-11.0,-100.00,East,95,5.0,7.0,6,-99.99,,,0.00,0.000000,,2013-01-19 14:34:00,
2013-01-19 07:23:00,54.0,-9.0,-100.00,ESE,104,6.0,8.0,7,-99.99,,,0.00,0.000000,,2013-01-19 15:23:00,
2013-01-19 07:33:00,54.0,-9.0,-100.00,ESE,104,6.0,8.0,7,-99.99,,,0.00,0.000000,,2013-01-19 15:33:00,
2013-01-19 08:33:00,56.0,-4.0,-100.00,ESE,104,8.0,9.0,8,-99.99,,,0.00,0.000000,,2013-01-19 16:33:00,
2013-01-19 09:37:00,56.0,-4.0,-100.00,ESE,120,8.0,9.0,8,-99.99,,,0.00,2.000000,,2013-01-19 17:37:00,
2013-01-19 10:37:00,57.0,-4.0,-100.00,SE,131,8.0,11.0,8,-99.99,,,0.00,90.000000,,2013-01-19 18:37:00,
2013-01-19 11:40:00,60.0,1.0,-100.00,SE,133,9.0,11.0,9,-99.99,,,0.00,254.000000,,2013-01-19 19:40:00,
2013-01-19 12:27:00,61.0,2.0,-100.00,SE,138,7.0,10.0,9,-99.99,,,0.00,380.000000,,2013-01-19 20:27:00,
2013-01-19 12:39:00,61.0,2.0,-100.00,SE,138,7.0,10.0,9,-99.99,,,0.00,380.000000,,2013-01-19 20:39:00,
2013-01-19 13:46:00,62.0,3.0,-100.00,SE,137,5.0,9.0,9,-99.99,,,-99.99,463.000000,,2013-01-19 21:46:00,
2013-01-19 14:35:00,62.0,3.0,-100.00,SE,145,5.0,7.0,9,-99.99,,,0.00,487.000000,,2013-01-19 22:35:00,
2013-01-19 15:35:00,64.0,2.0,-100.00,SE,133,3.0,6.0,8,-99.99,,,0.00,453.000000,,2013-01-19 23:35:00,
2013-01-19 16:26:00,67.0,1.0,-100.00,ESE,121,1.0,4.0,7,-99.99,,,-99.99,361.000000,,2013-01-20 00:26:00,
2013-01-19 17:38:00,64.0,-5.0,-100.00,ENE,66,2.0,3.0,6,-99.99,,,0.00,230.000000,,2013-01-20 01:38:00,
2013-01-19 18:38:00,59.0,-5.0,-100.00,ENE,63,5.0,6.0,7,-99.99,,,0.00,57.000000,,2013-01-20 02:38:00,
2013-01-19 19:39:00,56.0,-4.0,-100.00,NE,55,5.0,7.0,8,-99.99,,,0.00,0.000000,,2013-01-20 03:39:00,
2013-01-19 20:28:00,55.0,-1.0,-100.00,ENE,60,6.0,7.0,10,-99.99,,,0.00,0.000000,,2013-01-20 04:28:00,
2013-01-19 20:38:00,55.0,-1.0,-100.00,ENE,60,6.0,7.0,10,-99.99,,,0.00,0.000000,,2013-01-20 04:38:00,
2013-01-19 21:23:00,57.0,-1.0,-100.00,ENE,73,6.0,10.0,9,-99.99,,,0.00,0.000000,,2013-01-20 05:23:00,
2013-01-19 21:33:00,57.0,-1.0,-100.00,ENE,73,6.0,10.0,9,-99.99,,,0.00,0.000000,,2013-01-20 05:33:00,
2013-01-19 22:22:00,55.0,5.0,-100.00,ENE,58,6.0,10.0,13,-99.99,,,0.00,0.000000,,2013-01-20 06:22:00,
2013-01-19 22:33:00,55.0,5.0,-100.00,ENE,58,6.0,10.0,13,-99.99,,,0.00,0.000000,,2013-01-20 06:33:00,
2013-01-19 23:32:00,54.0,10.0,-100.00,ENE,75,9.0,10.0,17,-99.99,,,0.00,0.000000,,2013-01-20 07:32:00,